Showing default

BEIDOU 3M22, 44794

Orbit data source: Space-Track

BEIDOU 3M22, 44794 is a payload satellite owned by CNSA (CN) in MEO that was launched on Sat, 23 Nov 2019 UTC via a CHANG ZHENG 3B/YZ-1 launch vehicle from the Xichang Space Center, China (XSC). Payloads include a variety of satellites, spacecraft, and rockets equipped with specific instruments for various scientific and technological missions. These include communications satellites like Starlink; space stations such as the ISS; scientific satellites like the Hubble; Earth observation satellites from companies like Planet Labs, Umbra, and HawkEye 360; GPS; miniature CubeSats for education and research; and military/defense satellites.

Loading next visibility...
BEIDOU 3M22 details
Identifier
44794, 2019-078B
Orbit
MEO
Last TLE update2 days ago
Origin
Flag of CNCNSA (CN / PRC)
ManufacturerSECM
MissionOperational Defense Navigation
Bus & MotorBD-3M2, Unknown motor
Mass1,014 kg wet, ~850 kg dry
Launch date (UTC)
2019-11-23 (5 years ago)
Launch vehicle
CHANG ZHENG 3B/YZ-1
Launch site
Xichang Space Center, China (XSC)
Object type
Payload
Rocket body
Debris
Shape & HBRBox + 2 Pan, Unknown HBR
Radar Cross Section8.984 m², Large (>1 m²)

Expand to show TLE details & history

TLE from 2 days ago
0 BEIDOU 3M22
1 44794U 19078B   24345.07838584 -.00000067  00000-0  00000-0 0  9998
2 44794  54.4000 319.2169 0003958 357.1820   2.8140  1.86232369 34333
Epoch: 2024-12-10T01:52Z
Definitive object data (Epoch: 2024-12-10T01:52:52.536Z)
Latitude-0.00004°
Longitude-148.30857°
Altitude21,517.162 km
Speed3.781 km/s
True Right ascension21h 16m 48s
True Declination0° 00' 00"
Sunlit
Object was in daylight at TLE epoch
Visualization TLE readout
Latitude27.37765°
Longitude9.88895°
Altitude21,538.481 km
Speed3.779 km/s
Apparent Right ascension07h 52m 47s
Apparent Declination16° 25' 32"
Sunlit
Object is in daylight
Visualization observer readout
Local Sidereal Time20:08:57
Azimuth4.652° NNE
Elevation-33.532°
Doppler factor1
Orbital elements
Apogee altitude21,538.99 km
Perigee altitude21,516.9 km
Semi-major axis27,906.082 km
Eccentricity0.0003958
Inclination54.4°
RAAN319.2169°
Arg. of periapsis357.182°
True anomaly2.81623°
Mean anomaly2.814°
Eccentric anomaly2.81511°
Mean motion0.46558 °/min
BSTARUnknown
Orbital period773.23 mins
Loading maneuver chart data...
Loading historical data...
Loading historical data...
Loading historical data...
Loading historical data...
Loading historical data...
Loading historical data...
Loading historical data...
Other satellites on launch #78 in the year 2019 (2019-11-23 UTC)

BEIDOU 3M22 Visibility forecast

Observer location: undefined°, undefined

Span
Click to sort rows by Start time (UTC) header in descending order
Start Az.
Max El. time (UTC)
Max El. Az.
Max El.
End time (UTC)
End Az.
347 mins2024-12-12 07:14:03.393Z301.972° NW2024-12-12 10:15:03.393Z261.497° W42.695°2024-12-12 13:01:03.393Z192.525° SSW
160 mins2024-12-12 18:47:03.393Z95.746° ESE2024-12-12 20:09:03.393Z63.899° ENE19.808°2024-12-12 21:27:03.393Z37.5° NE
|